Regional Weather Roundup
Issued by NWS

Home | Current Version | Previous Version | Text Only | Print | Product List | Glossary On
Versions: 1 2 3 4 5 6 7 8 9 10 11 12 13 14 15 16 17 18 19 20 21 22 23 24 25 26 27 28 29 30 31 32 33 34 35 36 37 38 39 40 41 42 43 44 45 46 47 48 49 50
000
ASUS43 KDMX 130606
RWRIA

WEATHER ROUNDUP FOR IOWA
NATIONAL WEATHER SERVICE DES MOINES IA
100 AM CDT MON JUL 13 2020

NOTE: "FAIR" INDICATES FEW OR NO CLOUDS BELOW 12,000 FEET WITH NO
SIGNIFICANT WEATHER AND/OR OBSTRUCTIONS TO VISIBILITY.

* - THESE STATIONS ARE NOT NWS STATIONS...THUS NOT UNDER NWS
QUALITY CONTROL.  THEY ALSO DO NOT REPORT WEATHER SUCH
AS PRECIPITATION OR FOG.

IAZ001>003-012>014-020>022-031>034-043>046-130700-
   NORTHWEST IOWA

CITY           SKY/WX    TMP DP  RH WIND       PRES   REMARKS
CARROLL *      CLEAR     61  61 100 CALM      29.96S
CHEROKEE *     CLEAR     65  64  94 CALM      29.95F
DENISON *      CLEAR     64  64 100 CALM      29.97S
LE MARS *      CLEAR     66  63  88 S3        29.93S
SHELDON *      CLEAR     63  63 100 E5        29.94S
SIOUX CITY     CLEAR     65  62  90 SE7       29.93S
6HR MIN TEMP:  65; 6HR MAX TEMP:  81;

SPENCER        CLEAR     66  62  87 SE6       29.96F
6HR MIN TEMP:  65; 6HR MAX TEMP:  84;

STORM LAKE *   CLEAR     63  63 100 SE7       29.93F
$$

IAZ055>058-069>071-079>083-090>094-130700-
   SOUTHWEST IOWA

CITY           SKY/WX    TMP DP  RH WIND       PRES   REMARKS
ATLANTIC *     CLEAR     63  63 100 N3        29.96R
AUDUBON *      CLEAR     61  54  77 CALM      29.98S
CLARINDA *     CLEAR     64  64 100 CALM      29.98R
COUNCIL BLFS * CLEAR     68  64  88 SE5       29.95R
CRESTON *      CLEAR     66  66 100 SE5       29.98R
HARLAN  *      CLEAR     63  63 100 CALM      29.96S
LAMONI         CLEAR     72  62  71 SE3       29.97S
6HR MIN TEMP:  70; 6HR MAX TEMP:  83;

RED OAK *      CLEAR     64  63  94 CALM      29.97R
SHENANDOAH *   CLEAR     66  66 100 CALM      29.95R
$$

IAZ047>049-059>061-072>074-084-130700-
   CENTRAL IOWA

CITY           SKY/WX    TMP DP  RH WIND       PRES   REMARKS
AMES           CLEAR     63  60  90 CALM      29.96F
6HR MIN TEMP:  61; 6HR MAX TEMP:  83;

ANKENY *       CLEAR     64  63  94 CALM      29.97S
BOONE *        CLEAR     66  66 100 SE3       29.96F
CHARITON *     CLEAR     68  68 100 SE3       29.96F
DES MOINES     PTCLDY    72  63  73 E5        29.95S
6HR MIN TEMP:  72; 6HR MAX TEMP:  84;

GRINNELL*      CLEAR     66  62  86 CALM      29.98S
KNOXVILLE *    CLEAR     72  63  73 CALM      29.95F
MARSHALLTOWN   CLEAR     64  61  90 CALM      29.96R
6HR MIN TEMP:  62; 6HR MAX TEMP:  81;

NEWTON *       CLEAR     68  66  94 CALM      29.96S
PELLA *          N/A     66  62  87 CALM      29.96F
PERRY *        FAIR      66  61  85 CALM      29.96F
$$

IAZ004>006-015-016-023>025-035-036-130700-
   NORTH CENTRAL IOWA

CITY           SKY/WX    TMP DP  RH WIND       PRES   REMARKS
ALGONA *       CLEAR     64  64 100 CALM      29.97R
CLARION *      CLEAR     63  63 100 SE5       29.97S
ESTHERVILLE    CLEAR     61  60  97 S6        29.97R
6HR MIN TEMP:  61; 6HR MAX TEMP:  79;

FORT DODGE *   CLEAR     63  62  97 CALM      29.97F
MASON CITY     CLEAR     62  60  93 CALM      29.99R
6HR MIN TEMP:  62; 6HR MAX TEMP:  79;

FOREST CITY *  FAIR      61  61 100 CALM      29.97S
IOWA FALLS *   FAIR      64  58  81 CALM      29.99S
$$

IAZ007>011-017>019-026>030-037>042-050>054-066-130700-
   NORTHEAST IOWA

CITY           SKY/WX    TMP DP  RH WIND       PRES   REMARKS
CEDAR RAPIDS   CLEAR     66  64  93 CALM      29.96R
6HR MIN TEMP:  64; 6HR MAX TEMP:  81;

CLINTON *      CLEAR     63  62  97 CALM      29.96R
DECORAH *      CLEAR     66  64  94 CALM      29.96R
DUBUQUE        CLEAR     66  62  87 CALM      29.97S
6HR MIN TEMP:  66; 6HR MAX TEMP:  80;

MONTICELLO *   CLEAR     64  64 100 CALM      29.96S
OELWEIN *      CLEAR     64  63  94 SE3       29.97R
WATERLOO       CLEAR     67  62  84 CALM      29.95R
6HR MIN TEMP:  66; 6HR MAX TEMP:  82;

$$

IAZ064-065-067-068-078-130700-
   EAST CENTRAL IOWA

CITY           SKY/WX    TMP DP  RH WIND       PRES   REMARKS
DAVENPORT      CLEAR     64  61  90 CALM      29.98R
6HR MIN TEMP:  64; 6HR MAX TEMP:  81;

IOWA CITY      CLEAR     67  64  90 CALM      29.97R
6HR MIN TEMP:  67; 6HR MAX TEMP:  81;

MT. PLEASANT * CLEAR     66  64  94 CALM      29.97R
MUSCATINE *    CLEAR     68  64  88 CALM      29.96S
QUAD CITIES    CLEAR     65  61  87 CALM      29.96R
6HR MIN TEMP:  65; 6HR MAX TEMP:  81;

$$

IAZ062-063-075>077-085>089-095>099-130700-
   SOUTHEAST IOWA

CITY           SKY/WX    TMP DP  RH WIND       PRES   REMARKS
BURLINGTON     CLEAR     66  63  90 E3        29.95F
6HR MIN TEMP:  66; 6HR MAX TEMP:  82;

FAIRFIELD *    CLEAR     66  66 100 CALM      29.96S
FORT MADISON * CLEAR     66  64  94 CALM      29.97S
KEOKUK *       CLEAR     68  66  94 E6        29.95F
OSKALOOSA *    FAIR      68  63  84 SE3       29.96F
OTTUMWA        CLEAR     68  63  84 SE3       29.95F
6HR MIN TEMP:  65; 6HR MAX TEMP:  83;

WASHINGTON *   CLEAR     66  66 100 CALM      29.95R
$$

ABBREVIATIONS USED IN REMARKS
   TC - TEMPERATURES IN CELSIUS
  WCI - WIND CHILL INDEX
   HX - HEAT INDEX
  VSB - VISIBILITY
$$




USA.gov is the U.S. government's official web portal to all federal, state and local government web resources and services.